| time (UTC) | temp F | wind direction | speed knots | gust knots | rain 1hr in | rain 24hr in | rain mn in | humidity % | barometer mb |
| 20260505070538 | 62 | 0 | 0.0 | 0.9 | 0.00 | 0.00 | 0.00 | 58 | 1011.0 |
| 20260505070047 | 62 | 0 | 0.0 | 0.9 | 0.00 | 0.00 | 0.00 | 58 | 1011.0 |
| 20260505065536 | 62 | 0 | 0.0 | 2.6 | 0.00 | 0.00 | 0.00 | 57 | 1010.9 |
| 20260505065035 | 62 | 0 | 0.0 | 2.6 | 0.00 | 0.00 | 0.00 | 57 | 1010.9 |
| 20260505064547 | 62 | 0 | 0.0 | 2.6 | 0.00 | 0.00 | 0.00 | 57 | 1010.8 |
| 20260505064038 | 62 | 187 | 0.0 | 1.7 | 0.00 | 0.00 | 0.00 | 57 | 1010.9 |
| 20260505063538 | 63 | 0 | 0.0 | 3.5 | 0.00 | 0.00 | 0.00 | 57 | 1010.9 |
| 20260505063050 | 63 | 0 | 0.0 | 3.5 | 0.00 | 0.00 | 0.00 | 57 | 1010.9 |
| 20260505062538 | 63 | 0 | 0.0 | 3.5 | 0.00 | 0.00 | 0.00 | 57 | 1010.8 |
| 20260505062038 | 63 | 0 | 0.0 | 4.3 | 0.00 | 0.00 | 0.00 | 56 | 1010.8 |
| 20260505061548 | 63 | 76 | 0.0 | 4.3 | 0.00 | 0.00 | 0.00 | 56 | 1010.9 |
| 20260505061038 | 63 | 154 | 0.0 | 1.7 | 0.00 | 0.00 | 0.00 | 56 | 1010.9 |
| 20260505060538 | 63 | 0 | 0.0 | 0.0 | 0.00 | 0.00 | 0.00 | 56 | 1010.8 |
| 20260505060056 | 64 | 0 | 0.0 | 0.0 | 0.00 | 0.00 | 0.00 | 56 | 1010.8 |
| 20260505055539 | 64 | 0 | 0.0 | 3.5 | 0.00 | 0.00 | 0.00 | 55 | 1010.8 |
| 20260505055036 | 64 | 0 | 0.0 | 3.5 | 0.00 | 0.00 | 0.00 | 55 | 1010.7 |
| 20260505054556 | 64 | 0 | 0.0 | 3.5 | 0.00 | 0.00 | 0.00 | 55 | 1010.7 |
| 20260505054041 | 64 | 0 | 0.0 | 3.5 | 0.00 | 0.00 | 0.00 | 54 | 1010.6 |
| 20260505053535 | 64 | 132 | 0.0 | 3.5 | 0.00 | 0.00 | 0.00 | 54 | 1010.6 |
| 20260505053057 | 64 | 236 | 0.0 | 3.5 | 0.00 | 0.00 | 0.00 | 54 | 1010.6 |
| 20260505052538 | 64 | 0 | 0.9 | 3.5 | 0.00 | 0.00 | 0.00 | 54 | 1010.7 |
| 20260505052038 | 64 | 0 | 0.0 | 5.2 | 0.00 | 0.00 | 0.00 | 54 | 1010.6 |
| 20260505051546 | 64 | 0 | 0.9 | 5.2 | 0.00 | 0.00 | 0.00 | 54 | 1010.6 |
| 20260505051036 | 65 | 0 | 0.0 | 4.3 | 0.00 | 0.00 | 0.00 | 53 | 1010.6 |
| 20260505050538 | 65 | 0 | 0.0 | 2.6 | 0.00 | 0.00 | 0.00 | 53 | 1010.6 |
| 20260505041552 | 67 | 192 | 0.0 | 3.5 | 0.00 | 0.00 | 0.00 | 51 | 1010.4 |
| 20260505041036 | 67 | 194 | 0.0 | 4.3 | 0.00 | 0.00 | 0.00 | 51 | 1010.4 |
| 20260505040541 | 67 | 0 | 0.9 | 4.3 | 0.00 | 0.00 | 0.00 | 50 | 1010.4 |
| 20260505040051 | 67 | 191 | 0.0 | 4.3 | 0.00 | 0.00 | 0.00 | 50 | 1010.4 |
| 20260505035537 | 67 | 0 | 0.0 | 4.3 | 0.00 | 0.00 | 0.00 | 50 | 1010.4 |
| 20260505035039 | 67 | 147 | 0.0 | 3.5 | 0.00 | 0.00 | 0.00 | 50 | 1010.5 |
| 20260505034549 | 67 | 0 | 0.0 | 2.6 | 0.00 | 0.00 | 0.00 | 50 | 1010.5 |
| 20260505034038 | 67 | 0 | 0.0 | 2.6 | 0.00 | 0.00 | 0.00 | 50 | 1010.5 |
| 20260505033538 | 67 | 0 | 0.0 | 2.6 | 0.00 | 0.00 | 0.00 | 50 | 1010.5 |
| 20260505033052 | 67 | 229 | 0.0 | 2.6 | 0.00 | 0.00 | 0.00 | 50 | 1010.5 |
| 20260505032536 | 67 | 0 | 0.0 | 3.5 | 0.00 | 0.00 | 0.00 | 50 | 1010.5 |
| 20260505032036 | 67 | 0 | 0.0 | 4.3 | 0.00 | 0.00 | 0.00 | 51 | 1010.6 |
| 20260505031548 | 67 | 159 | 0.9 | 4.3 | 0.00 | 0.00 | 0.00 | 52 | 1010.7 |
| 20260505031038 | 66 | 0 | 0.0 | 3.5 | 0.00 | 0.00 | 0.00 | 52 | 1010.6 |
| 20260505030539 | 66 | 0 | 0.9 | 3.5 | 0.00 | 0.00 | 0.00 | 53 | 1010.6 |
| 20260505030104 | 65 | 0 | 0.0 | 2.6 | 0.00 | 0.00 | 0.00 | 56 | 1010.6 |
| 20260505025542 | 65 | 0 | 0.0 | 2.6 | 0.00 | 0.00 | 0.00 | 55 | 1010.7 |
| 20260505025038 | 65 | 0 | 0.0 | 0.9 | 0.00 | 0.00 | 0.00 | 57 | 1010.7 |
| 20260505024551 | 65 | 0 | 0.0 | 0.9 | 0.00 | 0.00 | 0.00 | 56 | 1010.6 |
| 20260505024038 | 65 | 0 | 0.0 | 0.0 | 0.00 | 0.00 | 0.00 | 56 | 1010.7 |
| 20260505023538 | 65 | 0 | 0.0 | 0.0 | 0.00 | 0.00 | 0.00 | 56 | 1010.6 |
| 20260505023102 | 66 | 0 | 0.0 | 0.0 | 0.00 | 0.00 | 0.00 | 56 | 1010.6 |
| 20260505022538 | 66 | 0 | 0.0 | 0.0 | 0.00 | 0.00 | 0.00 | 58 | 1010.6 |
| 20260505022041 | 66 | 0 | 0.0 | 0.0 | 0.00 | 0.00 | 0.00 | 59 | 1010.6 |
| 20260505021557 | 67 | 0 | 0.0 | 0.0 | 0.00 | 0.00 | 0.00 | 55 | 1010.6 |
| 20260505021036 | 67 | 0 | 0.0 | 0.0 | 0.00 | 0.00 | 0.00 | 56 | 1010.6 |
| 20260505020540 | 67 | 0 | 0.0 | 0.0 | 0.00 | 0.00 | 0.00 | 51 | 1010.6 |
| 20260505020056 | 68 | 0 | 0.0 | 0.0 | 0.00 | 0.00 | 0.00 | 50 | 1010.5 |
| 20260505015536 | 68 | 0 | 0.0 | 0.0 | 0.00 | 0.00 | 0.00 | 50 | 1010.5 |
| 20260505015036 | 69 | 0 | 0.0 | 0.0 | 0.00 | 0.00 | 0.00 | 51 | 1010.6 |
| 20260505014553 | 69 | 0 | 0.0 | 0.9 | 0.00 | 0.00 | 0.00 | 47 | 1010.5 |
| 20260505014035 | 70 | 0 | 0.0 | 0.9 | 0.00 | 0.00 | 0.00 | 45 | 1010.3 |
| 20260505013537 | 70 | 0 | 0.0 | 0.0 | 0.00 | 0.00 | 0.00 | 44 | 1010.4 |
| 20260505013051 | 71 | 0 | 0.0 | 0.0 | 0.00 | 0.00 | 0.00 | 43 | 1010.4 |
| 20260505012538 | 71 | 0 | 0.0 | 0.9 | 0.00 | 0.00 | 0.00 | 42 | 1010.3 |
| 20260505012041 | 71 | 0 | 0.0 | 1.7 | 0.00 | 0.00 | 0.00 | 41 | 1010.2 |
| 20260505011555 | 72 | 0 | 0.0 | 4.3 | 0.00 | 0.00 | 0.00 | 41 | 1010.3 |
| 20260505011041 | 72 | 0 | 0.0 | 4.3 | 0.00 | 0.00 | 0.00 | 40 | 1010.3 |
| 20260505010536 | 72 | 0 | 0.0 | 2.6 | 0.00 | 0.00 | 0.00 | 40 | 1010.2 |
| 20260505005536 | 72 | 0 | 0.0 | 0.0 | 0.00 | 0.00 | 0.00 | 39 | 1010.1 |
| 20260505005036 | 73 | 0 | 0.0 | 0.9 | 0.00 | 0.00 | 0.00 | 38 | 1010.0 |
| 20260505004552 | 73 | 0 | 0.0 | 3.5 | 0.00 | 0.00 | 0.00 | 38 | 1009.9 |
| 20260505004036 | 73 | 0 | 0.0 | 4.3 | 0.00 | 0.00 | 0.00 | 38 | 1009.8 |
| 20260505003539 | 73 | 163 | 0.0 | 4.3 | 0.00 | 0.00 | 0.00 | 38 | 1009.7 |
| 20260505003046 | 73 | 182 | 0.9 | 4.3 | 0.00 | 0.00 | 0.00 | 37 | 1009.6 |
| 20260505002534 | 74 | 207 | 0.0 | 3.5 | 0.00 | 0.00 | 0.00 | 37 | 1009.8 |
| 20260505002034 | 74 | 252 | 0.9 | 4.3 | 0.00 | 0.00 | 0.00 | 36 | 1009.8 |
| 20260505001550 | 74 | 258 | 0.9 | 4.3 | 0.00 | 0.00 | 0.00 | 36 | 1009.7 |
| 20260505001037 | 74 | 0 | 0.9 | 6.1 | 0.00 | 0.00 | 0.00 | 36 | 1009.7 |
| 20260505000538 | 74 | 225 | 0.9 | 6.1 | 0.00 | 0.00 | 0.00 | 36 | 1009.8 |
| 20260505000053 | 74 | 188 | 0.9 | 7.0 | 0.00 | 0.00 | 0.00 | 36 | 1009.8 |
| 20260504235535 | 74 | 180 | 1.7 | 7.0 | 0.00 | 0.00 | 0.00 | 36 | 1009.8 |
| 20260504235036 | 74 | 239 | 0.0 | 7.0 | 0.00 | 0.00 | 0.00 | 36 | 1009.7 |
| 20260504234544 | 75 | 173 | 1.7 | 8.7 | 0.00 | 0.00 | 0.00 | 36 | 1009.7 |
| 20260504234036 | 75 | 175 | 1.7 | 8.7 | 0.00 | 0.00 | 0.00 | 36 | 1009.6 |
| 20260504233540 | 75 | 177 | 2.6 | 8.7 | 0.00 | 0.00 | 0.00 | 36 | 1009.6 |
| 20260504233054 | 75 | 192 | 1.7 | 5.2 | 0.00 | 0.00 | 0.00 | 35 | 1009.5 |
| 20260504232537 | 75 | 259 | 1.7 | 4.3 | 0.00 | 0.00 | 0.00 | 35 | 1009.4 |
| 20260504232035 | 75 | 196 | 0.9 | 4.3 | 0.00 | 0.00 | 0.00 | 35 | 1009.5 |
| 20260504231548 | 76 | 0 | 1.7 | 4.3 | 0.00 | 0.00 | 0.00 | 35 | 1009.3 |
| 20260504231035 | 76 | 0 | 0.0 | 5.2 | 0.00 | 0.00 | 0.00 | 35 | 1009.3 |
| 20260504230535 | 76 | 173 | 0.9 | 6.1 | 0.00 | 0.00 | 0.00 | 35 | 1009.3 |
| 20260504230048 | 76 | 135 | 0.0 | 6.1 | 0.00 | 0.00 | 0.00 | 34 | 1009.3 |
| 20260504225535 | 76 | 277 | 1.7 | 7.0 | 0.00 | 0.00 | 0.00 | 34 | 1009.4 |
| 20260504225038 | 76 | 195 | 1.7 | 7.0 | 0.00 | 0.00 | 0.00 | 34 | 1009.3 |
| 20260504224548 | 77 | 200 | 2.6 | 8.7 | 0.00 | 0.00 | 0.00 | 34 | 1009.3 |
| 20260504224036 | 77 | 194 | 2.6 | 8.7 | 0.00 | 0.00 | 0.00 | 34 | 1009.4 |
| 20260504223535 | 77 | 220 | 1.7 | 7.0 | 0.00 | 0.00 | 0.00 | 34 | 1009.3 |
| 20260504223051 | 77 | 0 | 1.7 | 7.0 | 0.00 | 0.00 | 0.00 | 34 | 1009.3 |
| 20260504222536 | 77 | 192 | 3.5 | 7.8 | 0.00 | 0.00 | 0.00 | 34 | 1009.3 |
| 20260504222036 | 77 | 193 | 1.7 | 8.7 | 0.00 | 0.00 | 0.00 | 34 | 1009.4 |
| 20260504221548 | 77 | 188 | 2.6 | 10.4 | 0.00 | 0.00 | 0.00 | 33 | 1009.5 |
| 20260504221035 | 77 | 0 | 2.6 | 11.3 | 0.00 | 0.00 | 0.00 | 33 | 1009.4 |
| 20260504220536 | 77 | 222 | 2.6 | 11.3 | 0.00 | 0.00 | 0.00 | 33 | 1009.4 |
| 20260504220108 | 77 | 231 | 2.6 | 7.0 | 0.00 | 0.00 | 0.00 | 33 | 1009.4 |
| 20260504215536 | 77 | 200 | 0.9 | 7.0 | 0.00 | 0.00 | 0.00 | 34 | 1009.5 |
| 20260504215036 | 77 | 208 | 2.6 | 7.8 | 0.00 | 0.00 | 0.00 | 33 | 1009.5 |
| 20260504214552 | 77 | 259 | 2.6 | 7.8 | 0.00 | 0.00 | 0.00 | 33 | 1009.5 |
| 20260504214035 | 77 | 263 | 2.6 | 7.8 | 0.00 | 0.00 | 0.00 | 33 | 1009.5 |
| 20260504213535 | 77 | 246 | 2.6 | 7.8 | 0.00 | 0.00 | 0.00 | 33 | 1009.4 |
| 20260504213053 | 77 | 208 | 1.7 | 9.6 | 0.00 | 0.00 | 0.00 | 34 | 1009.4 |
| 20260504212535 | 77 | 239 | 3.5 | 9.6 | 0.00 | 0.00 | 0.00 | 33 | 1009.5 |
| 20260504212034 | 77 | 207 | 3.5 | 9.6 | 0.00 | 0.00 | 0.00 | 32 | 1009.5 |
| 20260504211554 | 77 | 116 | 3.5 | 8.7 | 0.00 | 0.00 | 0.00 | 32 | 1009.5 |
| 20260504211035 | 78 | 242 | 2.6 | 8.7 | 0.00 | 0.00 | 0.00 | 31 | 1009.5 |
| 20260504210536 | 78 | 169 | 2.6 | 7.8 | 0.00 | 0.00 | 0.00 | 33 | 1009.5 |
| 20260504210051 | 78 | 246 | 0.9 | 7.0 | 0.00 | 0.00 | 0.00 | 33 | 1009.4 |
| 20260504205536 | 77 | 223 | 1.7 | 8.7 | 0.00 | 0.00 | 0.00 | 31 | 1009.5 |
| 20260504205035 | 77 | 250 | 3.5 | 8.7 | 0.00 | 0.00 | 0.00 | 31 | 1009.6 |
| 20260504204547 | 78 | 193 | 2.6 | 11.3 | 0.00 | 0.00 | 0.00 | 31 | 1009.6 |
| 20260504204035 | 78 | 267 | 2.6 | 11.3 | 0.00 | 0.00 | 0.00 | 32 | 1009.6 |
| 20260504203535 | 78 | 159 | 3.5 | 10.4 | 0.00 | 0.00 | 0.00 | 31 | 1009.5 |
| 20260504203045 | 78 | 232 | 1.7 | 9.6 | 0.00 | 0.00 | 0.00 | 31 | 1009.7 |
| 20260504202535 | 78 | 182 | 2.6 | 8.7 | 0.00 | 0.00 | 0.00 | 32 | 1009.7 |
| 20260504202035 | 78 | 290 | 1.7 | 9.6 | 0.00 | 0.00 | 0.00 | 31 | 1010.0 |
| 20260504201551 | 78 | 175 | 2.6 | 9.6 | 0.00 | 0.00 | 0.00 | 31 | 1009.9 |
| 20260504201038 | 77 | 268 | 2.6 | 9.6 | 0.00 | 0.00 | 0.00 | 31 | 1009.9 |
| 20260504200537 | 77 | 176 | 2.6 | 9.6 | 0.00 | 0.00 | 0.00 | 31 | 1010.0 |
| 20260504200055 | 77 | 184 | 3.5 | 8.7 | 0.00 | 0.00 | 0.00 | 32 | 1010.0 |
| 20260504195535 | 76 | 239 | 2.6 | 7.8 | 0.00 | 0.00 | 0.00 | 33 | 1010.1 |
| 20260504195036 | 76 | 129 | 1.7 | 8.7 | 0.00 | 0.00 | 0.00 | 32 | 1010.1 |
| 20260504194549 | 77 | 289 | 3.5 | 9.6 | 0.00 | 0.00 | 0.00 | 32 | 1010.2 |
| 20260504194038 | 78 | 252 | 3.5 | 9.6 | 0.00 | 0.00 | 0.00 | 30 | 1010.1 |
| 20260504193536 | 79 | 255 | 1.7 | 9.6 | 0.00 | 0.00 | 0.00 | 30 | 1010.2 |
| 20260504193047 | 79 | 217 | 2.6 | 8.7 | 0.00 | 0.00 | 0.00 | 30 | 1010.2 |
| 20260504192534 | 79 | 153 | 3.5 | 7.8 | 0.00 | 0.00 | 0.00 | 30 | 1010.2 |
| 20260504192035 | 78 | 291 | 1.7 | 8.7 | 0.00 | 0.00 | 0.00 | 33 | 1010.3 |
| 20260504191557 | 78 | 205 | 1.7 | 9.6 | 0.00 | 0.00 | 0.00 | 30 | 1010.3 |
| 20260504191035 | 78 | 163 | 3.5 | 9.6 | 0.00 | 0.00 | 0.00 | 29 | 1010.5 |
| 20260504190534 | 78 | 88 | 1.7 | 7.8 | 0.00 | 0.00 | 0.00 | 30 | 1010.6 |
| 20260504185535 | 77 | 0 | 1.7 | 7.0 | 0.00 | 0.00 | 0.00 | 33 | 1010.6 |
| 20260504185034 | 77 | 238 | 1.7 | 8.7 | 0.00 | 0.00 | 0.00 | 30 | 1010.8 |
| 20260504184604 | 77 | 213 | 3.5 | 8.7 | 0.00 | 0.00 | 0.00 | 32 | 1010.7 |
| 20260504184037 | 77 | 70 | 3.5 | 7.8 | 0.00 | 0.00 | 0.00 | 31 | 1010.8 |
| 20260504183536 | 77 | 273 | 2.6 | 9.6 | 0.00 | 0.00 | 0.00 | 31 | 1010.9 |
| 20260504183051 | 77 | 269 | 2.6 | 9.6 | 0.00 | 0.00 | 0.00 | 30 | 1011.0 |
| 20260504182533 | 77 | 142 | 1.7 | 6.1 | 0.00 | 0.00 | 0.00 | 30 | 1011.0 |
| 20260504182035 | 77 | 132 | 0.9 | 10.4 | 0.00 | 0.00 | 0.00 | 30 | 1011.1 |
| 20260504181549 | 76 | 236 | 4.3 | 10.4 | 0.00 | 0.00 | 0.00 | 30 | 1011.3 |
| 20260504181033 | 77 | 157 | 1.7 | 7.8 | 0.00 | 0.00 | 0.00 | 30 | 1011.4 |
| 20260504180535 | 77 | 215 | 2.6 | 10.4 | 0.00 | 0.00 | 0.00 | 30 | 1011.3 |
| 20260504180049 | 77 | 259 | 2.6 | 10.4 | 0.00 | 0.00 | 0.00 | 30 | 1011.4 |
| 20260504175535 | 76 | 208 | 1.7 | 10.4 | 0.00 | 0.00 | 0.00 | 30 | 1011.5 |
| 20260504175035 | 76 | 244 | 2.6 | 10.4 | 0.00 | 0.00 | 0.00 | 30 | 1011.5 |
| 20260504174547 | 76 | 252 | 3.5 | 7.8 | 0.00 | 0.00 | 0.00 | 30 | 1011.6 |
| 20260504174034 | 76 | 240 | 1.7 | 7.8 | 0.00 | 0.00 | 0.00 | 30 | 1011.5 |
| 20260504173533 | 76 | 151 | 1.7 | 7.8 | 0.00 | 0.00 | 0.00 | 30 | 1011.6 |
| 20260504173052 | 76 | 110 | 2.6 | 7.0 | 0.00 | 0.00 | 0.00 | 30 | 1011.7 |
| 20260504172535 | 75 | 259 | 1.7 | 7.8 | 0.00 | 0.00 | 0.00 | 30 | 1011.8 |
| 20260504172033 | 75 | 106 | 1.7 | 7.8 | 0.00 | 0.00 | 0.00 | 31 | 1011.9 |
| 20260504171548 | 75 | 116 | 1.7 | 8.7 | 0.00 | 0.00 | 0.00 | 33 | 1012.0 |
| 20260504171036 | 75 | 166 | 0.9 | 8.7 | 0.00 | 0.00 | 0.00 | 31 | 1012.0 |
| 20260504170536 | 75 | 194 | 2.6 | 7.0 | 0.00 | 0.00 | 0.00 | 31 | 1012.2 |
| 20260504151035 | 71 | 250 | 1.7 | 7.8 | 0.00 | 0.00 | 0.00 | 36 | 1013.6 |
| 20260504150540 | 70 | 281 | 2.6 | 7.8 | 0.00 | 0.00 | 0.00 | 34 | 1013.6 |
| 20260504141038 | 67 | 74 | 0.0 | 4.3 | 0.00 | 0.00 | 0.00 | 47 | 1013.9 |
| 20260504140538 | 66 | 270 | 0.9 | 4.3 | 0.00 | 0.00 | 0.00 | 43 | 1014.0 |
| 20260504130539 | 59 | 183 | 0.9 | 5.2 | 0.00 | 0.00 | 0.00 | 50 | 1014.6 |
| 20260504110535 | 47 | 0 | 0.0 | 0.0 | 0.00 | 0.00 | 0.00 | 80 | 1015.1 |
| 20260504100535 | 48 | 0 | 0.0 | 0.0 | 0.00 | 0.00 | 0.00 | 74 | 1015.0 |
| 20260504081555 | 48 | 0 | 0.0 | 0.0 | 0.00 | 0.00 | 0.00 | 70 | 1015.3 |
| 20260504081034 | 49 | 0 | 0.0 | 0.0 | 0.00 | 0.00 | 0.00 | 72 | 1015.3 |
| 20260504080535 | 49 | 0 | 0.0 | 0.0 | 0.00 | 0.00 | 0.00 | 72 | 1015.3 |